{"data":{"norad_id":60927,"epoch":"2026-09-21T20:59:13.105536Z","epoch_age_seconds":69743,"freshness":"FRESH","line1":"1 60927U 24155D   26264.87445724  .00000382  00000+0  80134-5 0  9995","line2":"2 60927  53.1598  94.2651 0001091  90.7942 269.3201 15.69707989119214","mean_motion":15.69707989,"eccentricity":0.0001091,"inclination_deg":53.1598,"raan_deg":94.2651,"arg_perigee_deg":90.7942,"mean_anomaly_deg":269.3201,"bstar":8.0134e-6,"rev_number":11921,"period_min":91.73680774329,"perigee_km":358.99740357514,"apogee_km":360.46760670117,"semimajor_km":6737.8695051382,"source":"CELESTRAK","updated_at":"2026-09-22T09:00:49.288949Z"}}